DLH024 EDDF-EDDH

Flight info

Callsign DLH024
Flight time 0h 44m
Altitude 33000
Route MARUN3W/25C MARUN Y150 TOLGI DCT SAS P605 NOLGO NOLGO6A
Aircraft A346/H-SDE2E3FGHIJ3J4J5M1RWXY/LB1D1

Departure

Time 2026-05-05 15:41
Airport Frankfurt Main Airport (EDDF)

Arrival

Time 2026-05-05 16:25
Airport Hamburg Helmut Schmidt Airport (EDDH)
Time Latitude Longitude Altitude Speed Heading
2026-05-05 15:09 50.04696 8.56162 370 ft 0 kts 340°
2026-05-05 15:26 50.04688 8.56166 364 ft 0 kts 340°
2026-05-05 15:27 50.04664 8.56180 371 ft 0 kts 340°
2026-05-05 15:27 50.04640 8.56196 370 ft 0 kts 328°
2026-05-05 15:27 50.04630 8.56217 372 ft 0 kts 286°
2026-05-05 15:27 50.04631 8.56246 367 ft 0 kts 248°
2026-05-05 15:28 50.04633 8.56251 367 ft 0 kts 245°
2026-05-05 15:30 50.04632 8.56249 367 ft 1 kts 244°
2026-05-05 15:31 50.04623 8.56222 369 ft 4 kts 241°
2026-05-05 15:31 50.04603 8.56161 368 ft 8 kts 247°
2026-05-05 15:31 50.04579 8.56065 368 ft 8 kts 249°
2026-05-05 15:31 50.04557 8.55991 368 ft 8 kts 232°
2026-05-05 15:32 50.04493 8.55941 370 ft 12 kts 198°
2026-05-05 15:32 50.04425 8.55912 370 ft 10 kts 192°
2026-05-05 15:32 50.04348 8.55928 368 ft 10 kts 155°
2026-05-05 15:32 50.04296 8.55957 367 ft 4 kts 165°
2026-05-05 15:33 50.04257 8.55948 366 ft 8 kts 213°
2026-05-05 15:33 50.04199 8.55916 367 ft 11 kts 174°
2026-05-05 15:33 50.04143 8.55942 365 ft 0 kts 159°
2026-05-05 15:34 50.04143 8.55943 365 ft 1 kts 159°
2026-05-05 15:34 50.04103 8.55966 365 ft 7 kts 157°
2026-05-05 15:35 50.04073 8.56052 364 ft 11 kts 85°
2026-05-05 15:35 50.04093 8.56139 365 ft 13 kts 69°
2026-05-05 15:35 50.04144 8.56349 366 ft 16 kts 70°
2026-05-05 15:35 50.04171 8.56465 370 ft 16 kts 70°
2026-05-05 15:36 50.04212 8.56636 369 ft 18 kts 70°
2026-05-05 15:36 50.04259 8.56832 370 ft 20 kts 69°
2026-05-05 15:36 50.04311 8.57053 373 ft 22 kts 69°
2026-05-05 15:36 50.04364 8.57271 373 ft 22 kts 69°
2026-05-05 15:37 50.04422 8.57515 371 ft 24 kts 70°
2026-05-05 15:37 50.04482 8.57766 376 ft 26 kts 70°
2026-05-05 15:37 50.04548 8.58042 375 ft 29 kts 69°
2026-05-05 15:37 50.04608 8.58292 379 ft 19 kts 69°
2026-05-05 15:38 50.04647 8.58457 380 ft 7 kts 70°
2026-05-05 15:38 50.04644 8.58541 382 ft 9 kts 128°
2026-05-05 15:38 50.04615 8.58569 378 ft 0 kts 152°
2026-05-05 15:39 50.04611 8.58572 378 ft 2 kts 153°
2026-05-05 15:39 50.04592 8.58587 381 ft 4 kts 155°
2026-05-05 15:39 50.04560 8.58607 382 ft 5 kts 158°
2026-05-05 15:39 50.04523 8.58619 382 ft 7 kts 184°
2026-05-05 15:40 50.04489 8.58571 381 ft 9 kts 241°
2026-05-05 15:40 50.04446 8.58414 382 ft 34 kts 248°
2026-05-05 15:40 50.04268 8.57672 374 ft 107 kts 249°
2026-05-05 15:40 50.03931 8.56267 365 ft 165 kts 249°
2026-05-05 15:41 50.03493 8.54486 933 ft 176 kts 249°
2026-05-05 15:41 50.03058 8.52685 1831 ft 174 kts 249°
2026-05-05 15:41 50.02628 8.50892 2605 ft 178 kts 243°
2026-05-05 15:41 50.01874 8.49259 3094 ft 193 kts 222°
2026-05-05 15:42 50.00676 8.48169 3684 ft 204 kts 199°
2026-05-05 15:42 49.99244 8.47729 4510 ft 205 kts 190°
2026-05-05 15:42 49.97811 8.47428 5335 ft 207 kts 188°
2026-05-05 15:42 49.96378 8.47093 6134 ft 209 kts 192°
2026-05-05 15:43 49.94913 8.46525 6860 ft 214 kts 196°
2026-05-05 15:43 49.93419 8.45853 7600 ft 220 kts 196°
2026-05-05 15:43 49.91994 8.44867 8381 ft 225 kts 216°
2026-05-05 15:43 49.90966 8.42985 9169 ft 236 kts 243°
2026-05-05 15:44 49.90580 8.40454 10090 ft 242 kts 269°
2026-05-05 15:44 49.90979 8.37884 10946 ft 249 kts 297°
2026-05-05 15:44 49.92126 8.35834 11769 ft 257 kts 326°
2026-05-05 15:44 49.93784 8.34563 12491 ft 270 kts 337°
2026-05-05 15:45 49.95625 8.33460 12850 ft 297 kts 339°
2026-05-05 15:45 49.97694 8.32224 12873 ft 335 kts 338°
2026-05-05 15:45 49.99950 8.30817 12874 ft 370 kts 337°
2026-05-05 15:45 50.02415 8.29289 12855 ft 385 kts 341°
2026-05-05 15:46 50.05086 8.28583 12866 ft 393 kts 359°
2026-05-05 15:46 50.07822 8.29183 13430 ft 404 kts 17°
2026-05-05 15:46 50.10528 8.30579 14634 ft 398 kts 20°
2026-05-05 15:46 50.13130 8.32001 15662 ft 400 kts 20°
2026-05-05 15:47 50.15800 8.33457 16518 ft 407 kts 20°
2026-05-05 15:47 50.17624 8.34439 17057 ft 411 kts 20°
2026-05-05 15:47 50.21431 8.36465 18199 ft 418 kts 19°
2026-05-05 15:47 50.24242 8.37949 18918 ft 423 kts 19°
2026-05-05 15:48 50.27075 8.39442 19599 ft 429 kts 19°
2026-05-05 15:48 50.30061 8.41021 20327 ft 434 kts 20°
2026-05-05 15:48 50.33034 8.42631 21075 ft 440 kts 20°
2026-05-05 15:48 50.35961 8.44234 21737 ft 446 kts 20°
2026-05-05 15:49 50.38900 8.45843 22348 ft 451 kts 20°
2026-05-05 15:49 50.41929 8.47503 22987 ft 456 kts 20°
2026-05-05 15:49 50.44939 8.49152 23564 ft 460 kts 20°
2026-05-05 15:49 50.47984 8.50773 24043 ft 465 kts 18°
2026-05-05 15:50 50.51115 8.52304 24647 ft 469 kts 18°
2026-05-05 15:50 50.54251 8.53792 25192 ft 472 kts 17°
2026-05-05 15:50 50.57380 8.55277 25621 ft 478 kts 17°
2026-05-05 15:50 50.60582 8.56802 26167 ft 482 kts 17°
2026-05-05 15:51 50.63821 8.58350 26771 ft 481 kts 17°
2026-05-05 15:51 50.67019 8.59886 27540 ft 479 kts 17°
2026-05-05 15:51 50.70172 8.61405 28445 ft 476 kts 17°
2026-05-05 15:51 50.73346 8.62939 29287 ft 475 kts 17°
2026-05-05 15:52 50.76535 8.64482 30046 ft 475 kts 17°
2026-05-05 15:52 50.79652 8.66084 30703 ft 474 kts 20°
2026-05-05 15:52 50.82725 8.67966 31405 ft 473 kts 24°
2026-05-05 15:52 50.85712 8.70133 31994 ft 474 kts 27°
2026-05-05 15:53 50.88662 8.72533 32524 ft 477 kts 28°
2026-05-05 15:53 50.91640 8.75039 32799 ft 480 kts 29°
2026-05-05 15:53 50.94600 8.77549 32795 ft 481 kts 29°
2026-05-05 15:54 51.00504 8.82546 32797 ft 482 kts 28°
2026-05-05 15:54 51.06493 8.87599 32801 ft 483 kts 28°
2026-05-05 15:55 51.12426 8.92611 32805 ft 484 kts 28°
2026-05-05 15:55 51.18393 8.97662 32806 ft 484 kts 28°
2026-05-05 15:56 51.24336 9.02710 32806 ft 486 kts 28°
2026-05-05 15:56 51.30324 9.07809 32809 ft 486 kts 28°
2026-05-05 15:57 51.36291 9.12906 32832 ft 485 kts 28°
2026-05-05 15:57 51.42265 9.18024 32834 ft 485 kts 28°
2026-05-05 15:58 51.48246 9.23165 32839 ft 485 kts 28°
2026-05-05 15:58 51.54196 9.28293 32835 ft 486 kts 28°
2026-05-05 15:59 51.60190 9.33476 32834 ft 486 kts 28°
2026-05-05 15:59 51.66119 9.38618 32828 ft 486 kts 28°
2026-05-05 16:00 51.72097 9.43819 32825 ft 487 kts 27°
2026-05-05 16:00 51.78047 9.49015 32598 ft 487 kts 28°
2026-05-05 16:00 51.81046 9.51642 32326 ft 484 kts 27°
2026-05-05 16:01 51.84011 9.54223 32053 ft 481 kts 27°
2026-05-05 16:01 51.86940 9.56671 31806 ft 477 kts 26°
2026-05-05 16:01 51.89898 9.59100 31560 ft 475 kts 26°
2026-05-05 16:01 51.92903 9.61565 31299 ft 475 kts 26°
2026-05-05 16:02 51.95852 9.63995 31039 ft 475 kts 26°
2026-05-05 16:02 51.98803 9.66437 30794 ft 474 kts 26°
2026-05-05 16:02 52.01744 9.68881 30547 ft 474 kts 26°
2026-05-05 16:02 52.04649 9.71300 30308 ft 474 kts 26°
2026-05-05 16:03 52.07601 9.73763 30059 ft 474 kts 26°
2026-05-05 16:03 52.10499 9.76185 29805 ft 473 kts 25°
2026-05-05 16:03 52.13428 9.78636 29525 ft 474 kts 25°
2026-05-05 16:03 52.16367 9.81099 29245 ft 474 kts 25°
2026-05-05 16:04 52.19370 9.83620 28969 ft 475 kts 25°
2026-05-05 16:04 52.22383 9.86013 28681 ft 474 kts 21°
2026-05-05 16:04 52.25510 9.87909 28409 ft 472 kts 15°
2026-05-05 16:04 52.28715 9.89232 28121 ft 470 kts
2026-05-05 16:05 52.31988 9.90083 27719 ft 469 kts
2026-05-05 16:05 52.35259 9.90771 27201 ft 469 kts
2026-05-05 16:05 52.38518 9.91425 26599 ft 470 kts
2026-05-05 16:05 52.41827 9.92098 25988 ft 470 kts
2026-05-05 16:06 52.45077 9.92764 25345 ft 469 kts
2026-05-05 16:06 52.48344 9.92794 24767 ft 463 kts 351°
2026-05-05 16:06 52.51495 9.91678 24362 ft 454 kts 339°
2026-05-05 16:06 52.54509 9.89808 23962 ft 451 kts 335°
2026-05-05 16:07 52.57364 9.87837 23519 ft 448 kts 334°
2026-05-05 16:07 52.60254 9.85789 22751 ft 448 kts 334°
2026-05-05 16:07 52.63107 9.83742 22003 ft 446 kts 334°
2026-05-05 16:07 52.65954 9.81679 21267 ft 445 kts 334°
2026-05-05 16:08 52.68782 9.79609 20536 ft 443 kts 334°
2026-05-05 16:08 52.71593 9.77533 19848 ft 441 kts 334°
2026-05-05 16:08 52.74356 9.75472 19205 ft 438 kts 334°
2026-05-05 16:08 52.77118 9.73392 18770 ft 429 kts 334°
2026-05-05 16:09 52.79850 9.71321 18332 ft 415 kts 334°
2026-05-05 16:09 52.82457 9.69343 17677 ft 407 kts 334°
2026-05-05 16:09 52.85034 9.67382 16899 ft 403 kts 334°
2026-05-05 16:09 52.87543 9.65474 16387 ft 390 kts 334°
2026-05-05 16:10 52.89956 9.63642 15829 ft 372 kts 334°
2026-05-05 16:10 52.92262 9.61897 15355 ft 353 kts 334°
2026-05-05 16:10 52.94448 9.60249 14974 ft 335 kts 334°
2026-05-05 16:10 52.96519 9.58694 14649 ft 318 kts 334°
2026-05-05 16:11 52.98496 9.57214 14212 ft 307 kts 334°
2026-05-05 16:11 53.04252 9.52901 12210 ft 297 kts 334°
2026-05-05 16:12 53.06145 9.51488 11553 ft 294 kts 334°
2026-05-05 16:12 53.09832 9.48751 10278 ft 288 kts 334°
2026-05-05 16:13 53.15274 9.44712 8390 ft 278 kts 334°
2026-05-05 16:13 53.17008 9.43441 8101 ft 263 kts 339°
2026-05-05 16:13 53.18761 9.42682 7807 ft 250 kts 347°
2026-05-05 16:14 53.22097 9.41721 6887 ft 243 kts 348°
2026-05-05 16:14 53.25411 9.40800 5933 ft 239 kts 351°
2026-05-05 16:15 53.28747 9.40882 5321 ft 238 kts
2026-05-05 16:15 53.32045 9.41334 4811 ft 235 kts
2026-05-05 16:16 53.35063 9.43094 4294 ft 233 kts 38°
2026-05-05 16:16 53.37138 9.46551 3846 ft 230 kts 45°
2026-05-05 16:17 53.39267 9.50470 3324 ft 225 kts 48°
2026-05-05 16:17 53.40295 9.52467 3075 ft 223 kts 48°
2026-05-05 16:18 53.42281 9.56446 2994 ft 222 kts 49°
2026-05-05 16:18 53.43250 9.58426 2996 ft 222 kts 49°
2026-05-05 16:18 53.45114 9.62265 2974 ft 199 kts 50°
2026-05-05 16:19 53.45965 9.64023 2987 ft 184 kts 49°
2026-05-05 16:19 53.46742 9.65625 2998 ft 171 kts 50°
2026-05-05 16:19 53.48249 9.68723 2999 ft 171 kts 50°
2026-05-05 16:20 53.49769 9.71840 2994 ft 172 kts 49°
2026-05-05 16:20 53.51045 9.74448 2999 ft 172 kts 49°
2026-05-05 16:21 53.52578 9.77574 2964 ft 173 kts 49°
2026-05-05 16:22 53.54853 9.82215 2277 ft 167 kts 49°
2026-05-05 16:22 53.56311 9.85177 1815 ft 153 kts 48°
2026-05-05 16:23 53.57599 9.87851 1457 ft 144 kts 52°
2026-05-05 16:23 53.58278 9.89274 1275 ft 148 kts 45°
2026-05-05 16:23 53.59610 9.91896 858 ft 137 kts 48°
2026-05-05 16:24 53.60237 9.93166 693 ft 138 kts 47°
2026-05-05 16:24 53.60870 9.94449 515 ft 144 kts 48°
2026-05-05 16:24 53.62124 9.96976 60 ft 131 kts 47°
2026-05-05 16:25 53.62610 9.97962 51 ft 77 kts 50°
2026-05-05 16:25 53.63020 9.98788 53 ft 37 kts 50°
2026-05-05 16:25 53.63181 9.99113 53 ft 35 kts 50°
2026-05-05 16:26 53.63289 9.99519 56 ft 5 kts 95°
2026-05-05 16:26 53.63280 9.99629 58 ft 2 kts 99°
2026-05-05 16:27 53.63276 9.99671 59 ft 5 kts 99°
2026-05-05 16:27 53.63281 9.99752 55 ft 9 kts 68°
2026-05-05 16:27 53.63323 9.99858 50 ft 13 kts 48°
2026-05-05 16:27 53.63373 9.99954 54 ft 5 kts 49°
2026-05-05 16:28 53.63404 10.00015 52 ft 8 kts 51°
2026-05-05 16:28 53.63429 10.00101 53 ft 10 kts 76°
2026-05-05 16:28 53.63431 10.00192 59 ft 8 kts 95°
2026-05-05 16:28 53.63427 10.00260 52 ft 3 kts 98°
2026-05-05 16:29 53.63423 10.00300 56 ft 3 kts 98°
2026-05-05 16:29 53.63422 10.00312 58 ft 0 kts 98°